Regional Weather Roundup
Issued by NWS

Home | Current Version | Previous Version | Graphics & Text | Print | Product List | Glossary Off
Versions: 1 2 3 4 5 6 7 8 9 10 11 12 13 14 15 16 17 18 19 20 21 22 23 24 25 26 27 28 29 30 31 32 33 34 35 36 37 38 39 40 41 42 43 44 45 46 47 48 49 50

000
ASUS43 KMKX 021207
RWRWI

WISCONSIN REGIONAL WEATHER ROUNDUP
NATIONAL WEATHER SERVICE MILWAUKEE/SULLIVAN WI
700 AM CDT TUE JUN 02 2015

NOTE: "FAIR" INDICATES FEW OR NO CLOUDS BELOW 12,000 FEET WITH NO
SIGNIFICANT WEATHER AND/OR OBSTRUCTIONS TO VISIBILITY.

WIZ001-002-006>008-014>016-023>028-021300-
NORTHWEST WISCONSIN

CITY           SKY/WX    TMP DP  RH WIND       PRES   REMARKS
SUPERIOR ARPT  SUNNY     42  38  86 NE3       30.10S
ASHLAND        NOT AVBL
HAYWARD        NOT AVBL
SIREN          MOSUNNY   52  40  62 S9        30.09F
CUMBERLAND     SUNNY     46  37  71 SE6       30.11F
RICE LAKE      SUNNY     50  39  65 SE7       30.14F
CHETEK         SUNNY     48  40  73 E7        30.14F
LADYSMITH      SUNNY     46  39  76 SE5       30.18S
EAU CLAIRE     NOT AVBL
MENOMONIE      SUNNY     49  40  72 E5        30.14S
NEW RICHMOND   MOSUNNY   52  42  66 SE7       30.11S
OSCEOLA        MOSUNNY   54  43  66 SE9       30.11F
$$

WIZ003>005-009-010-017-018-021300-
NORTH CENTRAL WISCONSIN

CITY           SKY/WX    TMP DP  RH WIND       PRES   REMARKS
MANITOWISH WTR MOSUNNY   47  40  76 S5        30.17F
ARBOR VITAE    MOSUNNY   52  42  70 S6        30.17F
WOODRUFF       MOSUNNY   52  42  70 S6        30.17F
RHINELANDER    NOT AVBL
EAGLE RIVER    MOSUNNY   43  37  82 S3        30.18F
LAND O LAKES   MOSUNNY   40  40  98 CALM      30.19F
PHILLIPS       MOSUNNY   47  38  69 S6        30.16S
TOMAHAWK       SUNNY     37  36  96 CALM      30.19S
MEDFORD        SUNNY     45  39  79 SE5       30.19R
MERRILL        SUNNY     39  38  97 CALM      30.20S
$$

WIZ029-030-035-036-043>047-021300-
CENTRAL WISCONSIN

CITY           SKY/WX    TMP DP  RH WIND       PRES   REMARKS
WAUSAU         NOT AVBL
MOSINEE        NOT AVBL
MARSHFIELD     NOT AVBL
STEVENS POINT  SUNNY     39  38  95 CALM      30.21R
WAUPACA        SUNNY     44  44  97 CALM      30.21S
WAUTOMA        NOT AVBL
WISC RAPIDS    NOT AVBL
CAMP DOUGLAS   NOT AVBL
$$

WIZ011>013-019>022-031-037>040-048>050-021300-
NORTHEAST WISCONSIN

CITY           SKY/WX    TMP DP  RH WIND       PRES   REMARKS
ANTIGO         SUNNY     45  40  83 CALM      30.21R
SHAWANO        SUNNY     44  42  91 CALM      30.22R
OCONTO         SUNNY     42  42 100 CALM      30.22R
STURGEON BAY   SUNNY     45  37  76 S3        30.24R
GREEN BAY      NOT AVBL
MANITOWOC      NOT AVBL
APPLETON       MOSUNNY   48  39  71 VRB3      30.21R
CLINTONVILLE   SUNNY     43  41  93 CALM      30.21S
OSHKOSH        SUNNY     50  42  74 S3        30.20S
6HR MIN TEMP:  40; 6HR MAX TEMP:  50;

$$

WIZ032>034-041-042-053>061-021300-
SOUTHWEST WISCONSIN

CITY           SKY/WX    TMP DP  RH WIND       PRES   REMARKS
LA CROSSE      NOT AVBL
SPARTA         SUNNY     41  39  91 CALM      30.19R
VIROQUA        MOSUNNY   47  38  69 SE9       30.18S
BOSCOBEL       SUNNY     48  44  86 NE3       30.20S
6HR MIN TEMP:  39; 6HR MAX TEMP:  48;

PRAIRIE DU CHI MOSUNNY   49  40  72 SE5       30.17F
PLATTEVILLE    MOSUNNY   47  40  77 E8        30.19R
$$

WIZ056-057-062-063-064-067-068-021300-
SOUTH CENTRAL WISCONSIN

CITY           SKY/WX    TMP DP  RH WIND       PRES   REMARKS
REEDSBURG      SUNNY     41  40  97 CALM      30.20R
BARABOO/DELLS  SUNNY     44  40  86 CALM      30.20R
LONE ROCK      NOT AVBL
MINERAL POINT  SUNNY     46  37  71 SE6       30.20R
MADISON        MOSUNNY   47  40  76 CALM      30.20F
6HR MIN TEMP:  38; 6HR MAX TEMP:  49;

MIDDLETON      SUNNY     45  42  91 CALM      30.21S
WATERTOWN      MOSUNNY   44  44 100 CALM      30.20F
MONROE         MOSUNNY   46  37  71 CALM      30.19S
JANESVILLE     PTSUNNY   46  43  87 CALM      30.19S
$$

WIZ051-052-058>065-066-070>072-021300-
SOUTHEAST WISCONSIN

CITY           SKY/WX    TMP DP  RH WIND       PRES   REMARKS
MILWAUKEE      MOSUNNY   50  39  66 CALM      30.22R
6HR MIN TEMP:  41; 6HR MAX TEMP:  50;

WAUKESHA       SUNNY     43  37  81 CALM      30.23R
MILWAUKEE/TIMM SUNNY     45  37  76 CALM      30.23R
RACINE         SUNNY     48  42  80 CALM      30.24R
6HR MIN TEMP:  40; 6HR MAX TEMP:  48;

BURLINGTON     SUNNY     38  38  97 CALM      30.21R
KENOSHA          N/A     48  41  76 MISG      30.22R
6HR MIN TEMP:  36; 6HR MAX TEMP:  48;

FOND DU LAC    SUNNY     47  43  86 CALM      30.21S
6HR MIN TEMP:  39; 6HR MAX TEMP:  47;

SHEBOYGAN      SUNNY     46  42  86 CALM      30.22S
6HR MIN TEMP:  37; 6HR MAX TEMP:  46;

WEST BEND      SUNNY     41  37  87 CALM      30.22S
JUNEAU         SUNNY     46  39  78 CALM      30.22S
$$

LSZ147-162-021300-
LAKE SUPERIOR

STATION/POSITION TIME  TEMP    WIND        PRES    WAVE
                       AIR SEA DIR/SP/G            HT/PER
                 (UTC) (F)     (DEG/KT/KT) (MB)    (FT/S)
W MID LAKE BUOY  1050   41 37  120/  8/  8   N/A     1
DEVILS ISLAND    1100   51     180/  8/ 10   N/A
PORT WING        1100   42      40/  1/  2   N/A
SAXON HARBOR     1100   53     190/  5/ 11   N/A
$$

LMZ867-665-643>646-021300-
LAKE MICHIGAN

STATION/POSITION TIME  TEMP    WIND        PRES    WAVE
                       AIR SEA DIR/SP/G            HT/PER
                 (UTC) (F)     (DEG/KT/KT) (MB)    (FT/S)
CHAMBERS ISLAND  1100   43      CALM  /  2   N/A
N MID LAKE BUOY  1050   43 37  200/  6/  6   N/A     0
NORTHPORT PIER   1100   49      CALM  / 12   N/A
SISTER BAY       1148   50        CALM       N/A
ALGOMA LAKESHORE 1139             CALM       N/A
KEWAUNEE LAKESHO 1100   40      CALM  /  3   N/A
SHEBOYGAN LAKESH 1100   47     310/  1/  1   N/A
PORT WASHINGTON  1140   54      CALM  /  1   N/A
ATWATER BUOY     1100   46     340/  4/  6   N/A
MILWAUKEE LAKESH 1100   47     340/  3/  4   N/A
S MID LAKE BUOY  1050   42 38   70/  6/  6   N/A     1
KENOSHA   LAKESH 1000   45     320/  3/  4   N/A
$$

TC  - TEMPERATURE IN CELSIUS
VSB - VISIBILITY IN STATUTE MILES
WCI - WIND CHILL INDEX
HX  - HEAT INDEX



USA.gov is the U.S. government's official web portal to all federal, state and local government web resources and services.